Tracking 19831 objects as of 23-Aug-2019
HD Live streaming from Space Station
objects crossing your sky now

COSMOS 2528

Track COSMOS 2528 now!
10-day predictions


NORAD ID: 43657
Int'l Code: 2018-082A
Perigee: 907.9 km
Apogee: 916.7 km
Inclination: 67.2 °
Period: 103.1 minutes
Semi major axis: 7283 km
RCS: Unknown
Launch date: October 25, 2018
Source: Commonwealth of Independent States (former USSR) (CIS)
Launch site: PLESETSK MISSILE AND SPACE COMPLEX (PKMTR)
aabbcc
Your satellite tracking list
Your tracking list is empty




NASA's NSSDC Master Catalog

Two Line Element Set (TLE):
1 43657U 18082A   19235.77269947 -.00000075  00000-0  00000+0 0  9997
2 43657  67.1509   7.0655 0006032 257.4544 102.5881 13.96721803 42304
Source of the keplerian elements: AFSPC